Lid_Strength_Index
3 2 2 2 1 1 1 1 1 -0 -1 -1 -1 -1 -1 -1 -1 7 9 4 2 -0 1 6 5 6 7 8 8 8 12 14 14 13 14 10 11 9 10 11 10 9 6 5 3
3 3 2 2 1 1 0 0 0 -1 -2 -1 -1 -2 -2 -2 3 9 3 0 -1 -1 5 8 10 7 10 8 9 10 13 13 10 11 12 10 10 10 11 11 11 10 9 8 5
3 3 3 2 1 1 0 0 -0 -1 -2 -2 -2 -2 -2 -1 9 9 1 -0 -1 -1 5 7 8 10 10 9 9 11 12 10 9 9 10 11 11 10 12 13 12 12 11 11 11
3 3 3 3 2 1 1 -0 -0 -1 -1 -2 -2 -1 -1 3 14 8 1 1 -1 3 5 7 8 10 10 10 8 11 9 9 9 10 11 12 10 12 12 11 9 11 10 11 11
4 4 3 3 2 1 1 0 -0 -1 -1 -1 -1 -1 6 11 10 7 2 4 4 5 6 7 9 10 12 8 8 10 9 8 8 9 10 9 10 11 11 11 10 11 11 11 11
4 4 4 3 2 2 1 0 -0 -0 -1 -1 1 1 9 13 6 7 7 5 5 5 6 7 8 8 10 11 12 11 11 12 10 11 11 10 10 10 9 11 11 11 12 12 12
4 4 4 3 2 2 1 0 -0 -1 -1 -1 -1 6 9 11 7 7 7 7 5 5 6 6 6 8 8 10 10 10 12 11 11 10 12 11 14 14 11 11 12 12 12 13 13
4 4 4 3 2 2 1 1 0 0 -1 -1 -1 7 11 5 7 7 7 8 5 4 5 5 6 7 9 8 9 13 13 15 13 13 11 11 16 13 12 12 13 13 14 14 13
5 4 4 3 2 1 0 1 1 0 -0 3 8 10 13 5 8 7 8 9 7 4 5 6 8 11 11 11 14 14 17 15 15 14 14 13 15 13 12 12 14 14 14 14 14
5 4 4 3 2 1 0 1 1 4 5 6 7 11 10 11 8 8 8 7 6 7 8 9 12 15 15 16 20 17 17 15 16 15 14 13 14 13 12 13 14 14 14 15 15
5 4 4 3 2 1 3 5 9 11 10 12 12 11 10 9 7 9 9 8 8 9 13 12 15 18 18 16 14 15 17 19 16 14 15 12 14 13 12 12 13 13 14 14 14
4 4 4 3 3 2 6 9 9 9 13 9 10 10 8 9 12 10 9 11 11 15 13 16 18 15 14 15 14 16 18 19 16 14 15 13 14 13 13 13 13 13 13 13 13
4 4 4 2 2 6 8 8 5 6 13 11 10 10 10 9 12 11 11 11 13 14 16 18 16 14 15 17 17 17 19 19 18 15 14 13 15 15 13 13 13 13 13 13 13
4 4 3 2 8 8 10 6 5 6 16 14 12 11 10 10 13 9 10 12 13 15 14 16 15 15 16 17 17 18 16 17 17 19 22 15 19 15 15 15 15 14 15 14 13
4 4 3 4 10 10 9 6 5 8 24 13 12 8 10 13 13 11 10 12 16 15 15 17 17 18 18 17 15 17 15 16 16 18 19 17 22 19 15 17 16 15 15 15 14
4 4 5 8 10 9 7 6 7 17 26 15 12 13 14 13 13 11 13 12 13 14 15 16 14 16 17 15 14 14 15 15 14 17 25 20 22 22 19 18 16 16 15 15 14
4 4 7 8 12 8 7 8 17 22 15 17 16 14 15 16 15 15 16 18 20 22 19 17 18 16 15 18 15 16 19 30 28 28 26 19 23 21 17 16 16 16 16 15 15
4 4 6 8 9 8 8 14 23 22 18 14 15 15 17 16 16 16 17 20 18 19 21 22 22 18 16 18 19 18 20 28 34 28 25 19 26 20 15 14 15 16 15 15 15
4 8 9 9 8 8 12 20 22 16 15 16 15 17 17 16 17 17 19 20 18 18 24 24 21 16 16 16 17 19 22 17 28 32 29 22 19 16 15 15 17 16 16 16 15
10 10 10 7 8 9 15 20 18 14 15 15 17 17 20 18 19 19 19 17 17 16 16 19 25 17 16 16 15 17 17 25 28 34 36 25 23 23 17 18 17 17 17 16 15
10 12 8 7 8 13 19 23 15 14 14 15 17 17 18 18 18 20 19 17 16 16 16 18 23 20 17 19 20 20 20 20 24 25 32 32 26 21 18 17 18 17 16 16 15
11 17 8 8 15 16 23 18 13 16 14 15 15 16 17 18 18 19 19 17 15 16 19 16 24 28 21 18 18 17 20 20 29 28 25 25 26 14 16 16 16 16 15 14 14
14 15 9 9 21 26 18 16 15 16 16 16 16 16 16 17 23 18 19 15 15 16 18 18 25 31 25 21 18 20 18 18 23 26 29 32 26 15 15 15 14 14 13 13 13
13 18 15 14 14 17 21 20 19 15 16 15 16 16 17 18 17 24 19 15 14 16 13 15 22 25 27 24 21 22 20 20 25 32 25 24 22 18 16 16 14 14 13 13 13
14 20 16 21 19 16 16 19 21 20 16 16 16 17 17 25 19 24 19 17 15 14 15 18 27 23 22 19 20 20 19 19 21 21 27 21 21 18 16 15 14 13 12 13 12
16 18 17 20 15 16 16 17 18 17 17 17 17 16 16 23 19 23 19 17 17 16 16 16 27 25 27 21 20 21 19 19 19 18 19 19 20 15 15 14 14 13 13 12 12
12 13 15 17 16 19 18 16 15 15 15 15 16 16 17 16 15 15 15 15 15 17 20 21 25 29 32 23 28 28 24 20 19 19 20 23 17 15 16 14 13 13 12 12 11